Darstellungsparameter: Aktuell verwendete Einstellungen:
Skalierung der Graphiken ... ?
xyx+y,   Skalierungsfaktor:      Skalierung: Modus: x, Faktor: 1
Darstellungszeitraum ... ?
Vom - - bis: - -   Zeitraum: 29.05.2020 - 29.05.2020
Min/Max/Avg-Anzeige ... ?
Zeige MMA aktuell
Zeige MMA Monat
Zeige MMA alles
Zeige --A aktuell
Zeige --A Monat
Zeige --A alles
Keine MMA-Anzeige
MMA:
Keine MMA-Graphiken
MMA-Basis: 29.05.2020 - 29.05.2020
Quicknavigation für Darstellung... ?
Tage:      1T, 2T, 3T, 5T -1T -2T -3T -5T +1T +2T +3T +5T
Wochen: 1W, 2W, 3W -1W -2W -3W +1W +2W +3W
Monate: 1M, 3M, 6M -1M -3M -6M +1M +3M +6M
Jahre:    1J, 3J, 5J, 10J -1J -3J -5J -10J +1J +3J +5J +10J
Nutze für die Darstellung ... ?
Originaldaten oder Mittelwerte auf ...
Stundenbasis Tagesbasis Wochenbasis
Monatsbasis Jahresbasis      Datenbasis: Original-Daten
Darstellen als:
Statistik (Auto) Statistik J:M      Darstellung:
Zur Graphik,    zurück zur Übersicht aller Sensoren.
 
Tabellarische Datenbersicht: ?
 
Sensor: Nr:Datum:Temp:Feuchte:Taupunkt:
Aussen-T/F 1 29-05-2020 00:00:00 12.1 C 64 % 5.51 C
2 29-05-2020 00:05:00 12.1 C 63 % 5.28 C
3 29-05-2020 00:10:00 11.9 C 65 % 5.54 C
4 29-05-2020 00:15:00 11.8 C 64 % 5.22 C
5 29-05-2020 00:20:00 11.8 C 65 % 5.44 C
6 29-05-2020 00:25:00 11.7 C 65 % 5.35 C
7 29-05-2020 00:30:00 11.7 C 65 % 5.35 C
8 29-05-2020 00:35:00 11.6 C 66 % 5.47 C
9 29-05-2020 00:40:00 11.4 C 67 % 5.5 C
10 29-05-2020 00:45:00 11.3 C 68 % 5.62 C
11 29-05-2020 00:50:00 11.2 C 68 % 5.52 C
12 29-05-2020 00:55:00 11.1 C 68 % 5.43 C
13 29-05-2020 01:00:00 10.9 C 69 % 5.44 C
14 29-05-2020 01:05:00 10.8 C 69 % 5.35 C
15 29-05-2020 01:10:00 10.7 C 69 % 5.25 C
16 29-05-2020 01:15:00 10.6 C 70 % 5.36 C
17 29-05-2020 01:20:00 10.4 C 71 % 5.38 C
18 29-05-2020 01:25:00 10.3 C 71 % 5.28 C
19 29-05-2020 01:30:00 10.2 C 71 % 5.18 C
20 29-05-2020 01:35:00 10.1 C 72 % 5.29 C
21 29-05-2020 01:40:00 10.1 C 72 % 5.29 C
22 29-05-2020 01:45:00 10.1 C 72 % 5.29 C
23 29-05-2020 01:50:00 9.9 C 73 % 5.29 C
24 29-05-2020 01:55:00 9.8 C 73 % 5.2 C
25 29-05-2020 02:00:00 9.7 C 74 % 5.3 C
Sensor: Nr:Datum:Temp:Feuchte:Taupunkt:
Aussen-T/F 26 29-05-2020 02:05:00 9.6 C 74 % 5.2 C
27 29-05-2020 02:10:00 9.5 C 74 % 5.1 C
28 29-05-2020 02:15:00 9.5 C 75 % 5.3 C
29 29-05-2020 02:20:00 9.4 C 75 % 5.2 C
30 29-05-2020 02:25:00 9.3 C 75 % 5.1 C
31 29-05-2020 02:30:00 9.2 C 76 % 5.2 C
32 29-05-2020 02:35:00 9.1 C 76 % 5.1 C
33 29-05-2020 02:40:00 9 C 77 % 5.19 C
34 29-05-2020 02:45:00 8.9 C 77 % 5.09 C
35 29-05-2020 02:50:00 8.8 C 77 % 5 C
36 29-05-2020 02:55:00 8.6 C 78 % 4.99 C
37 29-05-2020 03:00:00 8.6 C 78 % 4.99 C
38 29-05-2020 03:05:00 8.5 C 78 % 4.89 C
39 29-05-2020 03:10:00 8.4 C 79 % 4.98 C
40 29-05-2020 03:15:00 8.3 C 79 % 4.88 C
41 29-05-2020 03:20:00 8.3 C 80 % 5.06 C
42 29-05-2020 03:25:00 8.2 C 80 % 4.96 C
43 29-05-2020 03:30:00 8.1 C 80 % 4.86 C
44 29-05-2020 03:35:00 8 C 80 % 4.77 C
45 29-05-2020 03:40:00 8 C 81 % 4.94 C
46 29-05-2020 03:45:00 7.9 C 81 % 4.85 C
47 29-05-2020 03:50:00 7.8 C 81 % 4.75 C
48 29-05-2020 03:55:00 7.8 C 81 % 4.75 C
49 29-05-2020 04:00:00 7.7 C 82 % 4.83 C
50 29-05-2020 04:05:00 7.7 C 82 % 4.83 C
Sensor: Nr:Datum:Temp:Feuchte:Taupunkt:
Aussen-T/F 51 29-05-2020 04:10:00 7.6 C 83 % 4.9 C
52 29-05-2020 04:15:00 7.5 C 83 % 4.81 C
53 29-05-2020 04:20:00 7.4 C 83 % 4.71 C
54 29-05-2020 04:25:00 7.3 C 83 % 4.61 C
55 29-05-2020 04:30:00 7.3 C 84 % 4.78 C
56 29-05-2020 04:35:00 7.3 C 84 % 4.78 C
57 29-05-2020 04:40:00 7.2 C 84 % 4.68 C
58 29-05-2020 04:45:00 7.2 C 84 % 4.68 C
59 29-05-2020 04:50:00 7.1 C 85 % 4.75 C
60 29-05-2020 04:55:00 7.1 C 85 % 4.75 C
61 29-05-2020 05:00:00 7 C 85 % 4.66 C
62 29-05-2020 05:05:00 6.9 C 85 % 4.56 C
63 29-05-2020 05:10:00 6.9 C 86 % 4.72 C
64 29-05-2020 05:15:00 6.9 C 86 % 4.72 C
65 29-05-2020 05:20:00 6.9 C 86 % 4.72 C
66 29-05-2020 05:25:00 6.8 C 86 % 4.63 C
67 29-05-2020 05:30:00 6.8 C 86 % 4.63 C
68 29-05-2020 05:35:00 6.8 C 87 % 4.79 C
69 29-05-2020 05:40:00 6.7 C 87 % 4.69 C
70 29-05-2020 05:45:00 6.7 C 87 % 4.69 C
71 29-05-2020 05:50:00 6.7 C 87 % 4.69 C
72 29-05-2020 05:55:00 6.7 C 88 % 4.86 C
73 29-05-2020 06:00:00 6.7 C 88 % 4.86 C
74 29-05-2020 06:05:00 6.7 C 88 % 4.86 C
75 29-05-2020 06:10:00 6.7 C 88 % 4.86 C
Sensor: Nr:Datum:Temp:Feuchte:Taupunkt:
Aussen-T/F 76 29-05-2020 06:15:00 6.7 C 88 % 4.86 C
77 29-05-2020 06:20:00 6.7 C 88 % 4.86 C
78 29-05-2020 06:25:00 6.7 C 88 % 4.86 C
79 29-05-2020 06:30:00 6.7 C 88 % 4.86 C
80 29-05-2020 06:35:00 6.8 C 89 % 5.12 C
81 29-05-2020 06:40:00 6.8 C 89 % 5.12 C
82 29-05-2020 06:45:00 6.8 C 89 % 5.12 C
83 29-05-2020 06:50:00 6.8 C 89 % 5.12 C
84 29-05-2020 06:55:00 6.9 C 89 % 5.22 C
85 29-05-2020 07:00:00 6.9 C 89 % 5.22 C
86 29-05-2020 07:05:00 7 C 90 % 5.48 C
87 29-05-2020 07:10:00 7.1 C 90 % 5.57 C
88 29-05-2020 07:15:00 7.1 C 90 % 5.57 C
89 29-05-2020 07:20:00 7.2 C 90 % 5.67 C
90 29-05-2020 07:25:00 7.3 C 90 % 5.77 C
91 29-05-2020 07:30:00 7.3 C 90 % 5.77 C
92 29-05-2020 07:35:00 7.4 C 90 % 5.87 C
93 29-05-2020 07:40:00 7.5 C 90 % 5.97 C
94 29-05-2020 07:45:00 7.6 C 90 % 6.07 C
95 29-05-2020 07:50:00 7.7 C 91 % 6.33 C
96 29-05-2020 07:55:00 7.8 C 90 % 6.27 C
97 29-05-2020 08:00:00 7.9 C 90 % 6.36 C
98 29-05-2020 08:05:00 8.1 C 90 % 6.56 C
99 29-05-2020 08:10:00 8.2 C 90 % 6.66 C
100 29-05-2020 08:15:00 8.3 C 90 % 6.76 C
Sensor: Nr:Datum:Temp:Feuchte:Taupunkt:
Aussen-T/F 101 29-05-2020 08:20:00 8.5 C 90 % 6.96 C
102 29-05-2020 08:25:00 8.7 C 90 % 7.15 C
103 29-05-2020 08:30:00 8.8 C 90 % 7.25 C
104 29-05-2020 08:35:00 8.9 C 90 % 7.35 C
105 29-05-2020 08:40:00 9.2 C 89 % 7.48 C
106 29-05-2020 08:45:00 9.3 C 89 % 7.58 C
107 29-05-2020 08:50:00 9.5 C 89 % 7.78 C
108 29-05-2020 08:55:00 9.7 C 88 % 7.81 C
109 29-05-2020 09:00:00 9.8 C 88 % 7.91 C
110 29-05-2020 09:05:00 10.1 C 87 % 8.04 C
111 29-05-2020 09:10:00 10.3 C 87 % 8.23 C
112 29-05-2020 09:15:00 10.5 C 86 % 8.26 C
113 29-05-2020 09:20:00 10.8 C 86 % 8.56 C
114 29-05-2020 09:25:00 11.1 C 85 % 8.68 C
115 29-05-2020 09:30:00 11.4 C 83 % 8.62 C
116 29-05-2020 09:35:00 11.7 C 82 % 8.73 C
117 29-05-2020 09:40:00 12 C 81 % 8.84 C
118 29-05-2020 09:45:00 12.3 C 78 % 8.58 C
119 29-05-2020 09:50:00 12.7 C 76 % 8.58 C
120 29-05-2020 09:55:00 13.3 C 73 % 8.57 C
121 29-05-2020 10:00:00 13.9 C 70 % 8.53 C
122 29-05-2020 10:05:00 14.4 C 68 % 8.58 C
123 29-05-2020 10:10:00 15 C 66 % 8.71 C
124 29-05-2020 10:15:00 15.5 C 64 % 8.73 C
125 29-05-2020 10:20:00 15.9 C 65 % 9.34 C
Sensor: Nr:Datum:Temp:Feuchte:Taupunkt:
Aussen-T/F 126 29-05-2020 10:25:00 16.3 C 62 % 9.01 C
127 29-05-2020 10:30:00 16.7 C 61 % 9.15 C
128 29-05-2020 10:35:00 17.1 C 59 % 9.03 C
129 29-05-2020 10:40:00 17.4 C 55 % 8.28 C
130 29-05-2020 10:45:00 17.7 C 56 % 8.82 C
131 29-05-2020 10:50:00 17.9 C 53 % 8.19 C
132 29-05-2020 10:55:00 18.1 C 52 % 8.1 C
133 29-05-2020 11:00:00 18.2 C 51 % 7.91 C
134 29-05-2020 11:05:00 18.2 C 50 % 7.62 C
135 29-05-2020 11:10:00 18.4 C 51 % 8.09 C
136 29-05-2020 11:15:00 18.6 C 50 % 7.98 C
137 29-05-2020 11:20:00 18.7 C 50 % 8.08 C
138 29-05-2020 11:25:00 18.9 C 50 % 8.26 C
139 29-05-2020 11:30:00 19.1 C 45 % 6.9 C
140 29-05-2020 11:35:00 19.2 C 45 % 6.99 C
141 29-05-2020 11:40:00 19.3 C 45 % 7.08 C
142 29-05-2020 11:45:00 19.3 C 46 % 7.4 C
143 29-05-2020 11:50:00 19.3 C 44 % 6.75 C
144 29-05-2020 11:55:00 19.2 C 43 % 6.33 C
145 29-05-2020 12:00:00 18.9 C 44 % 6.39 C
146 29-05-2020 12:05:00 18.9 C 44 % 6.39 C
147 29-05-2020 12:10:00 18.8 C 44 % 6.3 C
148 29-05-2020 12:15:00 18.9 C 44 % 6.39 C
149 29-05-2020 12:20:00 19.2 C 43 % 6.33 C
150 29-05-2020 12:25:00 19.3 C 44 % 6.75 C
Sensor: Nr:Datum:Temp:Feuchte:Taupunkt:
Aussen-T/F 151 29-05-2020 12:30:00 19.6 C 42 % 6.35 C
152 29-05-2020 12:35:00 19.5 C 41 % 5.91 C
153 29-05-2020 12:40:00 19.4 C 41 % 5.82 C
154 29-05-2020 12:45:00 19.4 C 42 % 6.17 C
155 29-05-2020 12:50:00 19.5 C 40 % 5.56 C
156 29-05-2020 12:55:00 19.4 C 40 % 5.47 C
157 29-05-2020 13:00:00 19.4 C 41 % 5.82 C
158 29-05-2020 13:05:00 19.7 C 41 % 6.09 C
159 29-05-2020 13:10:00 19.8 C 41 % 6.18 C
160 29-05-2020 13:15:00 20 C 40 % 6 C
161 29-05-2020 13:20:00 20.1 C 39 % 5.73 C
162 29-05-2020 13:25:00 20.2 C 39 % 5.82 C
163 29-05-2020 13:30:00 20.1 C 39 % 5.73 C
164 29-05-2020 13:35:00 20.2 C 38 % 5.44 C
165 29-05-2020 13:40:00 20.1 C 38 % 5.35 C
166 29-05-2020 13:45:00 20.1 C 38 % 5.35 C
167 29-05-2020 13:50:00 20.1 C 38 % 5.35 C
168 29-05-2020 13:55:00 20.3 C 39 % 5.9 C
169 29-05-2020 14:00:00 20.4 C 39 % 5.99 C
170 29-05-2020 14:05:00 20.4 C 39 % 5.99 C
171 29-05-2020 14:10:00 20.5 C 40 % 6.45 C
172 29-05-2020 14:15:00 20.6 C 39 % 6.17 C
173 29-05-2020 14:20:00 20.7 C 37 % 5.5 C
174 29-05-2020 14:25:00 20.6 C 40 % 6.54 C
175 29-05-2020 14:30:00 20.6 C 39 % 6.17 C
Sensor: Nr:Datum:Temp:Feuchte:Taupunkt:
Aussen-T/F 176 29-05-2020 14:35:00 20.8 C 38 % 5.97 C
177 29-05-2020 14:40:00 20.9 C 38 % 6.06 C
178 29-05-2020 14:45:00 20.9 C 38 % 6.06 C
179 29-05-2020 14:50:00 21.1 C 39 % 6.62 C
180 29-05-2020 14:55:00 20.9 C 38 % 6.06 C
181 29-05-2020 15:00:00 21 C 38 % 6.15 C
182 29-05-2020 15:05:00 21.3 C 38 % 6.42 C
183 29-05-2020 15:10:00 21.7 C 38 % 6.77 C
184 29-05-2020 15:15:00 21.8 C 37 % 6.48 C
185 29-05-2020 15:20:00 21.9 C 37 % 6.56 C
186 29-05-2020 15:25:00 22.1 C 37 % 6.74 C
187 29-05-2020 15:30:00 22.2 C 36 % 6.43 C
188 29-05-2020 15:35:00 22.3 C 35 % 6.11 C
189 29-05-2020 15:40:00 22.7 C 35 % 6.46 C
190 29-05-2020 15:45:00 23 C 34 % 6.31 C
191 29-05-2020 15:50:00 22.8 C 35 % 6.55 C
192 29-05-2020 15:55:00 22.6 C 35 % 6.38 C
193 29-05-2020 16:00:00 22.7 C 34 % 6.04 C
194 29-05-2020 16:05:00 22.8 C 34 % 6.13 C
195 29-05-2020 16:10:00 22.8 C 34 % 6.13 C
196 29-05-2020 16:15:00 22.9 C 34 % 6.22 C
197 29-05-2020 16:20:00 23.2 C 35 % 6.9 C
198 29-05-2020 16:25:00 23.6 C 34 % 6.83 C
199 29-05-2020 16:30:00 23.4 C 33 % 6.22 C
200 29-05-2020 16:35:00 23.2 C 34 % 6.48 C
Sensor: Nr:Datum:Temp:Feuchte:Taupunkt:
Aussen-T/F 201 29-05-2020 16:40:00 23.2 C 34 % 6.48 C
202 29-05-2020 16:45:00 23.3 C 33 % 6.14 C
203 29-05-2020 16:50:00 23.3 C 33 % 6.14 C
204 29-05-2020 16:55:00 22.9 C 34 % 6.22 C
205 29-05-2020 17:00:00 22.8 C 35 % 6.55 C
206 29-05-2020 17:05:00 22.9 C 36 % 7.05 C
207 29-05-2020 17:10:00 23.5 C 34 % 6.74 C
208 29-05-2020 17:15:00 23.6 C 33 % 6.4 C
209 29-05-2020 17:20:00 23.4 C 34 % 6.66 C
210 29-05-2020 17:25:00 23.4 C 34 % 6.66 C
211 29-05-2020 17:30:00 23.6 C 33 % 6.4 C
212 29-05-2020 17:35:00 23.4 C 33 % 6.22 C
213 29-05-2020 17:40:00 23.3 C 33 % 6.14 C
214 29-05-2020 17:45:00 23 C 33 % 5.88 C
215 29-05-2020 17:50:00 22.9 C 33 % 5.79 C
216 29-05-2020 17:55:00 23.3 C 33 % 6.14 C
217 29-05-2020 18:00:00 23.7 C 31 % 5.58 C
218 29-05-2020 18:05:00 23.8 C 32 % 6.13 C
219 29-05-2020 18:10:00 23.7 C 30 % 5.11 C
220 29-05-2020 18:15:00 23.5 C 30 % 4.94 C
221 29-05-2020 18:20:00 23.2 C 31 % 5.15 C
222 29-05-2020 18:25:00 22.8 C 32 % 5.26 C
223 29-05-2020 18:30:00 23.1 C 32 % 5.52 C
224 29-05-2020 18:35:00 23.5 C 31 % 5.41 C
225 29-05-2020 18:40:00 23.5 C 30 % 4.94 C
Sensor: Nr:Datum:Temp:Feuchte:Taupunkt:
Aussen-T/F 226 29-05-2020 18:45:00 23.6 C 31 % 5.5 C
227 29-05-2020 18:50:00 23.8 C 30 % 5.2 C
228 29-05-2020 18:55:00 23.7 C 29 % 4.63 C
229 29-05-2020 19:00:00 23.6 C 29 % 4.54 C
230 29-05-2020 19:05:00 23.3 C 31 % 5.24 C
231 29-05-2020 19:10:00 23.2 C 29 % 4.2 C
232 29-05-2020 19:15:00 23.1 C 28 % 3.61 C
233 29-05-2020 19:20:00 22.9 C 29 % 3.94 C
234 29-05-2020 19:25:00 22.7 C 29 % 3.77 C
235 29-05-2020 19:30:00 22.4 C 29 % 3.51 C
236 29-05-2020 19:35:00 22.3 C 30 % 3.9 C
237 29-05-2020 19:40:00 22.3 C 30 % 3.9 C
238 29-05-2020 19:45:00 22.2 C 30 % 3.82 C
239 29-05-2020 19:50:00 22.2 C 30 % 3.82 C
240 29-05-2020 19:55:00 22.2 C 30 % 3.82 C
241 29-05-2020 20:00:00 21.9 C 30 % 3.56 C
242 29-05-2020 20:05:00 21.8 C 29 % 2.99 C
243 29-05-2020 20:10:00 21.7 C 29 % 2.91 C
244 29-05-2020 20:15:00 21.7 C 30 % 3.39 C
245 29-05-2020 20:20:00 21.7 C 29 % 2.91 C
246 29-05-2020 20:25:00 21.6 C 31 % 3.76 C
247 29-05-2020 20:30:00 21.5 C 30 % 3.21 C
248 29-05-2020 20:35:00 21.4 C 31 % 3.59 C
249 29-05-2020 20:40:00 21.3 C 32 % 3.95 C
250 29-05-2020 20:45:00 21.2 C 33 % 4.3 C
Sensor: Nr:Datum:Temp:Feuchte:Taupunkt:
Aussen-T/F 251 29-05-2020 20:50:00 21 C 40 % 6.9 C
252 29-05-2020 20:55:00 20.7 C 40 % 6.63 C
253 29-05-2020 21:00:00 20.3 C 40 % 6.27 C
254 29-05-2020 21:05:00 19.9 C 42 % 6.62 C
255 29-05-2020 21:10:00 19.3 C 43 % 6.42 C
256 29-05-2020 21:15:00 18.8 C 44 % 6.3 C
257 29-05-2020 21:20:00 18.3 C 43 % 5.52 C
258 29-05-2020 21:25:00 17.8 C 44 % 5.4 C
259 29-05-2020 21:30:00 17.4 C 46 % 5.67 C
260 29-05-2020 21:35:00 16.9 C 46 % 5.22 C
261 29-05-2020 21:40:00 16.5 C 48 % 5.46 C
262 29-05-2020 21:45:00 16.2 C 47 % 4.89 C
263 29-05-2020 21:50:00 15.9 C 48 % 4.92 C
264 29-05-2020 21:55:00 15.7 C 49 % 5.03 C
265 29-05-2020 22:00:00 15.4 C 49 % 4.75 C
266 29-05-2020 22:05:00 15.3 C 49 % 4.66 C
267 29-05-2020 22:10:00 15.1 C 50 % 4.77 C
268 29-05-2020 22:15:00 14.9 C 51 % 4.86 C
269 29-05-2020 22:20:00 14.8 C 50 % 4.49 C
270 29-05-2020 22:25:00 14.6 C 51 % 4.59 C
271 29-05-2020 22:30:00 14.5 C 51 % 4.5 C
272 29-05-2020 22:35:00 14.4 C 51 % 4.4 C
273 29-05-2020 22:40:00 14.3 C 53 % 4.86 C
274 29-05-2020 22:45:00 14.2 C 51 % 4.22 C
275 29-05-2020 22:50:00 14.2 C 51 % 4.22 C
Sensor: Nr:Datum:Temp:Feuchte:Taupunkt:
Aussen-T/F 276 29-05-2020 22:55:00 14.2 C 53 % 4.77 C
277 29-05-2020 23:00:00 14.1 C 53 % 4.68 C
278 29-05-2020 23:05:00 14 C 53 % 4.58 C
279 29-05-2020 23:10:00 13.9 C 54 % 4.76 C
280 29-05-2020 23:15:00 13.9 C 55 % 5.02 C
281 29-05-2020 23:20:00 13.8 C 56 % 5.19 C
282 29-05-2020 23:25:00 13.7 C 57 % 5.35 C
283 29-05-2020 23:30:00 13.6 C 57 % 5.25 C
284 29-05-2020 23:35:00 13.4 C 57 % 5.07 C
285 29-05-2020 23:40:00 13.3 C 59 % 5.47 C
286 29-05-2020 23:45:00 13.3 C 58 % 5.22 C
287 29-05-2020 23:50:00 13.2 C 60 % 5.61 C
288 29-05-2020 23:55:00 13.2 C 60 % 5.61 C

Legende:
   Min
   Max


Maximal/Minimal-Werte vom 29.05.2020 - 29.05.2020

Sensor Min Max Avg
Temp
(Aussen-T/F)
6.7 °C
29-05-2020  05:40:00
23.8 °C
29-05-2020  18:05:00
15.21 °C
Feuchte
(Aussen-T/F)
28 %
29-05-2020  19:15:00
91 %
29-05-2020  07:50:00
57.91 %
Taupunkt
(Aussen-T/F)
2.91 C
29-05-2020  20:10:00
9.34 C
29-05-2020  10:20:00
5.76 C

Die Daten stammen von einer Davis Vantage Pro 2 Wetter-Station und werden unter Linux mit der Software wview2wettercgi und aufbereitet. Alle Angaben erfolgen ohne Gewähr für ihre Vollständigkeit oder Richtigkeit.
Kontakt: Rainer Krienke krienke@uni-koblenz.de . Meine Webseiten an der Uni Koblenz oder privat.
Version: $Revision: 0.78 $